Location: The D'Auria's Ocala Star Observatory
(29.0276°N, 82.1742°W)
Time: 14:13:14
(UTC-05:00)

Daily predictions for brighter satellites

Satellite Brightness Start Highest point End
(mag) Time Altitude Azimuth Time Altitude Azimuth Time Altitude Azimuth
Cosmos 1378 Rocket 3.5 18:41:00 10° N 18:45:19 82° E 18:49:36 10° S
FREGAT/IRIS 4.1 18:44:12 10° ESE 18:46:25 19° ENE 18:48:38 10° NNE
Cosmos 1782 Rocket 3.7 18:42:55 10° S 18:47:18 86° W 18:51:45 10° N
Helios 1B rocket 4.4 18:52:28 10° E 18:53:10 10° E 18:53:51 10° ESE
Cosmos 2322 Rocket 3.4 18:50:17 10° NNE 18:54:23 20° ENE 18:58:29 10° ESE
Cosmos 2084 4.1 18:50:39 10° NW 18:54:37 58° WSW 18:58:48 10° SSE
Meteor 1-25 Rocket 4.2 18:49:33 10° S 18:55:01 61° E 19:00:32 10° NNE
Okean 2 Rocket 3.1 18:52:34 10° S 18:57:03 88° E 19:01:31 10° N
Cosmos 1346 Rocket 2.7 18:55:53 10° N 18:59:50 79° E 19:03:42 10° S
ALOS 3.2 18:57:46 10° SE 19:01:36 26° ENE 19:05:27 10° NNE
COSMO-SKYMED 1 4.4 19:00:54 10° N 19:04:49 33° WNW 19:08:42 10° SW
Cosmos 1745 Rocket 4.2 18:59:39 10° S 19:06:00 84° W 19:12:20 10° N
Centaur AC-119 3.8 19:04:49 10° WSW 19:06:46 22° S 19:10:29 10° SE
CENTAUR R/B 3.2 19:02:21 10° NNW 19:10:21 61° ENE 19:18:36 10° SE
H-2A R/B 4.2 19:10:31 16° ENE 19:10:33 16° ENE 19:12:55 10° NNE
GOES 2 Rocket 3.1 19:08:39 10° W 19:13:27 78° S 19:16:33 18° ESE
PSLV R/B 4.3 19:11:47 10° NW 19:14:33 27° NNE 19:15:47 21° ENE
Cosmos 2151 Rocket 3.6 19:10:36 10° S 19:14:59 60° E 19:19:26 10° NNE
Cosmos 1818 3.5 19:12:28 10° SSW 19:17:49 65° ESE 19:23:13 10° NNE
FENGYUN 3A 4.0 19:13:35 10° SE 19:18:37 42° ENE 19:23:40 10° N
deb Kosmos-1763 4.4 19:17:59 10° SSW 19:21:46 71° WNW 19:25:34 10° N
Cosmos 1812 2.6 19:23:16 10° N 19:27:08 75° E 19:30:58 10° S
Okean 1 Rocket 3.9 19:26:33 10° SSE 19:30:23 29° E 19:31:25 26° ENE
Cosmos 44 Rocket 3.1 19:29:02 10° NNW 19:33:42 64° ENE 19:37:41 14° SE
SL-19 R/B 4.3 19:32:18 10° SSE 19:37:41 55° ENE 19:43:17 10° N
Meteosat 1 Rocket2 4.3 19:34:53 10° W 19:38:07 28° SSW 19:40:40 16° SSE
Cosmos 2292 Rocket 3.7 19:35:17 10° S 19:39:19 85° W 19:44:47 10° N
Cosmos 1602 3.6 19:38:09 10° S 19:41:56 58° E 19:45:05 14° NNE
SJ-6B 3.7 19:40:54 10° S 19:44:53 53° W 19:48:51 10° NNW
TSX-5 3.3 19:43:12 10° SSW 19:46:37 75° WNW 19:47:37 41° N
BREEZE-M DEB (TANK) 3.2 19:41:12 10° SW 19:46:57 57° NW 19:47:59 35° NNE
Cosmos 676 Rocket 4.1 19:43:07 10° SSW 19:48:16 76° WNW 19:53:28 10° NNE
Cosmos 2360 Rocket 3.7 19:44:22 10° NNE 19:46:58 19° NE 19:46:58 19° NE
Cosmos 1980 Rocket 3.7 19:44:16 10° NW 19:49:27 37° WSW 19:54:38 10° S
Cosmos 407 Rocket 4.5 19:44:55 10° SW 19:49:54 47° WNW 19:54:59 10° N
Gbstr 26 Del rocket 2.6 19:50:17 10° SSW 19:53:58 62° SSE 19:53:58 62° SSE
Cosmos 1023 Rocket 4.3 19:50:09 10° S 19:55:11 71° ESE 19:58:28 22° NNE
Cosmos 1833 4.1 19:50:07 10° SSW 19:55:51 90° W 20:01:34 10° NNE
FengYun 1-2 T 4.2 19:50:37 10° SSE 19:56:05 83° WSW 20:01:35 10° NNW
Resurs 01 Rocket 1.7 19:58:13 10° S 20:02:37 78° W 20:07:02 10° NNW
GPS 2-04 Rocket1 4.0 19:59:02 10° SSW 20:02:06 30° S 20:02:06 30° S
ERBS 3.1 20:02:35 10° NW 20:05:29 52° W 20:05:29 52° W
Cosmos 44 2.8 20:02:24 10° NNW 20:06:46 89° ENE 20:06:46 89° ENE
Meteor 1-19 Rocket 4.2 20:01:26 10° N 20:07:02 60° E 20:08:13 50° SE
H-2A ROCKET BODY 3.9 19:58:03 10° W 20:10:59 30° SW 20:14:14 16° S
Cosmos 2327 Rocket 4.5 20:06:35 10° SSE 20:17:07 18° NNE 20:18:38 10° NNE
Cosmos 2181 Rocket 3.9 20:07:32 10° N 20:13:47 89° ENE 20:20:09 10° S
Cosmos 1536 Rocket 4.3 20:09:43 10° NNW 20:14:04 53° W 20:18:25 10° S
Meteor 1-13 Rocket 4.1 20:12:09 10° N 20:17:43 90° ENE 20:22:10 17° S
SL-16 R/B 2.4 20:12:51 10° NNW 20:18:29 67° WSW 20:22:27 20° S
ASTRO E2 3.6 20:15:07 10° WNW 20:18:04 47° WNW 20:18:04 47° WNW
Spot 2 Rocket 4.2 20:18:33 10° S 20:23:26 51° W 20:28:20 10° NNW
Cosmos 1140 Rocket 4.0 20:18:25 10° SSW 20:23:26 57° WNW 20:26:22 25° N
Helios 1B rocket 3.6 20:27:48 37° NW 20:28:35 41° WNW 20:32:28 10° SW
Cosmos 2184 Rocket 3.8 20:22:14 10° S 20:28:36 82° E 20:34:56 10° N
Cosmos 1850 Rocket 4.4 20:24:08 10° SSW 20:28:06 53° SSW 20:28:06 53° SSW
Cosmos 2074 Rocket 3.9 20:25:06 10° S 20:31:20 90° WNW 20:37:36 10° N
Cosmos 2322 Rocket 3.3 20:33:18 10° NW 20:38:31 40° WSW 20:42:27 17° SSW
ATLAS CENTAUR R/B 3.9 20:37:54 10° SW 20:41:26 28° SW 20:41:26 28° SW
